Location: *
(51.4660°N, 0.3360°W)
Time: 09:38:49
(UTC+00:00)

Terra - Pass Details

Date: 19 September 2019
Orbit: 701 x 703 km, 98.2° (Epoch: 15 October)

Event Time Altitude Azimuth Distance (km) Brightness Sun altitude
Exits shadow 22:28:52 29° 314° (NW) 1,286 3.6 -34.2°
Drops below altitude 10° 22:31:29 10° 334° (NNW) 2,183 5.2 -34.3°
Sets 22:33:51 0° 341° (NNW) 3,106 6.2 -34.5°
